SCP
0 0 0 0 0 0 0 -0 0 0 -0 0 -0 0 -0 0 -0 -0 0 -0 -1 -1 -1 -0 -1 -1 -1 -1 -1 -1 -1 -1 -1 -1 -0 -0 -0 -0 -0 -0 -0 -0 0 0 0 0 -0 -0 -0
0 0 0 0 0 0 -0 0 0 0 0 0 -0 0 0 -0 0 0 0 -0 -1 -1 -1 -0 -1 -1 -1 -1 -1 -1 -1 -1 -1 -1 -0 -0 -0 -0 -0 -0 -0 -0 -0 -0 -0 -0 -0 -0 -0
0 0 0 0 0 0 0 0 0 0 0 -0 -0 0 0 -0 -0 0 0 0 -0 -1 -0 -0 -1 -0 -1 -1 -1 -1 -1 -1 -1 -0 -0 -0 -0 -0 -0 -0 -0 -0 -0 -0 -0 -0 -0 -0 0
0 0 0 0 0 0 0 0 0 -0 -0 -0 0 0 0 0 -0 0 -0 0 0 0 0 -1 -1 -0 -0 -0 -0 -1 -1 -1 -1 -0 -0 -0 -0 -0 -0 -0 -0 -0 -0 -0 -0 -0 0 0 0
0 0 0 0 0 0 0 -0 -0 -0 0 0 0 0 0 0 1 0 0 1 1 1 1 0 -1 -1 -0 -0 -0 -0 -0 -0 -0 -0 -0 -0 -0 -0 -0 -0 -0 -0 -0 -0 0 0 0 0 0
0 0 0 0 0 0 0 0 -0 -0 -0 -0 0 0 0 1 1 1 1 1 1 1 1 0 -0 -0 -0 0 -0 -0 -0 -0 -0 -0 -0 -0 -0 -0 -0 -0 -0 -0 0 0 0 0 0 0 0
0 0 0 0 0 -0 -0 -0 -0 -0 -0 -0 -0 0 0 1 1 2 2 1 2 2 2 1 1 0 -0 0 0 -0 -0 -0 -0 -0 -0 -0 -0 -0 -0 -0 0 0 0 0 0 0 0 0 0
0 0 0 0 0 -0 -0 0 -0 0 0 0 0 0 0 0 2 3 2 1 2 2 2 1 1 1 1 1 0 -0 0 0 -0 -0 -0 -0 -0 -0 -0 0 0 0 0 0 0 0 0 0 0
0 0 0 0 0 -0 -0 -0 -0 -0 -0 0 0 0 0 0 3 2 4 3 2 2 2 1 1 1 1 1 0 0 -0 -0 -0 -0 -0 0 0 0 0 0 0 0 0 0 0 0 0 0 0
0 0 0 0 0 0 -0 0 -0 0 0 0 0 0 0 -0 4 2 3 2 2 1 1 1 1 1 1 1 1 0 0 0 0 0 0 0 0 0 0 0 0 0 0 0 0 0 0 -0 -0
0 0 0 0 0 0 -0 -0 -0 -0 0 0 0 0 0 4 3 3 3 2 1 2 2 1 1 1 1 1 1 0 0 0 0 0 0 0 0 0 0 0 0 0 0 0 0 -0 -0 -0 0
0 0 0 0 0 0 0 -0 -0 0 -0 -0 0 0 0 1 1 1 4 3 1 1 2 1 1 1 1 2 1 0 0 0 0 0 0 0 0 0 0 0 0 0 0 0 0 -0 -0 -0 0
0 0 0 0 0 0 0 -0 -0 -0 -0 -0 -0 0 0 0 0 1 1 2 2 1 2 1 1 1 1 1 1 1 0 0 0 0 0 0 0 0 0 0 0 0 0 0 0 0 -0 0 0
0 0 0 0 0 0 0 -0 -0 -0 -0 -0 -0 -0 -0 0 0 0 0 1 2 1 1 2 1 1 1 1 1 1 0 0 0 0 0 0 0 0 0 0 0 0 0 0 0 0 0 0 0
0 0 0 0 0 0 0 0 -0 -0 -0 -0 -0 -0 0 0 0 0 0 0 1 2 2 1 2 1 1 1 1 1 1 0 0 0 0 0 0 0 0 0 0 0 0 0 0 0 0 0 0
0 0 -0 -0 0 0 0 0 -0 0 0 -0 -0 -0 0 0 0 0 0 0 1 3 3 2 2 2 2 1 1 1 1 0 0 0 0 0 0 0 0 0 0 0 0 0 0 0 0 0 0
0 0 -0 -0 -0 0 0 0 0 -0 0 -0 -0 -0 0 0 0 0 0 0 0 4 4 3 3 2 2 1 2 1 1 1 0 0 0 0 0 0 0 0 0 0 0 0 0 0 0 0 0
0 0 0 0 0 0 -0 0 -0 0 -0 -0 -0 -0 -0 0 0 0 0 0 0 2 3 3 3 2 2 2 1 1 1 0 0 0 0 0 0 0 0 0 0 0 0 0 0 0 0 0 0
0 0 0 0 0 0 -0 -0 -0 -0 -0 -0 -0 -0 0 0 0 0 0 0 0 2 2 2 0 2 1 1 1 0 0 0 0 0 0 0 0 0 0 0 0 0 0 0 0 0 0 0 0
0 0 0 0 0 0 0 -0 -0 -0 -0 -0 -0 0 0 0 0 0 0 0 0 1 1 1 0 1 1 1 0 0 0 0 0 0 0 0 0 0 0 0 0 0 0 0 0 0 0 0 0
0 0 0 0 0 0 0 0 0 -0 -0 -0 -0 0 0 0 0 0 0 0 0 1 1 1 0 1 1 0 0 0 0 0 0 0 0 0 0 0 0 0 0 0 0 0 0 0 0 0 0
0 0 0 0 0 0 0 0 -0 -0 0 0 0 0 0 0 0 0 0 0 0 1 1 1 1 1 1 0 0 0 0 0 0 0 0 0 0 0 0 0 0 0 0 0 0 0 0 0 0
0 0 0 0 0 0 0 0 0 -0 0 0 0 -0 0 0 0 0 0 0 0 0 1 1 1 1 1 0 0 0 0 0 0 0 0 0 0 0 0 0 0 0 0 0 0 0 0 0 0
0 0 0 0 0 0 0 0 0 -0 0 0 0 0 0 0 0 0 0 0 0 0 1 1 1 1 1 1 0 0 0 0 0 0 0 0 0 0 0 0 0 0 0 0 0 0 0 0 0
0 0 0 0 0 0 0 0 0 -0 0 0 0 0 0 0 0 0 0 0 0 0 0 1 1 1 1 1 1 0 1 0 0 0 0 0 0 0 0 0 0 0 0 0 0 0 0 0 0
0 0 0 0 0 0 0 0 0 -0 0 0 0 0 0 0 0 0 0 0 0 0 0 3 1 1 2 2 1 2 1 1 1 1 1 0 0 0 0 0 0 0 0 0 0 0 0 0 0
0 0 0 0 0 0 0 0 0 -0 -0 -0 -0 0 0 0 0 0 0 0 0 0 0 3 3 0 1 2 2 2 3 2 2 2 1 2 1 1 0 0 0 0 0 0 0 0 0 0 0
0 0 0 0 0 0 0 0 0 0 0 0 -0 0 0 0 0 0 0 0 0 0 0 0 0 4 2 1 3 3 2 3 4 3 2 2 3 3 1 1 0 0 0 1 1 1 0 0 0
0 0 0 0 0 0 0 0 0 0 0 0 0 0 0 0 0 0 0 0 0 0 0 0 0 0 0 4 3 3 3 3 4 3 2 2 4 4 3 2 1 1 0 1 1 0 0 0 0
0 0 0 0 0 0 0 0 0 0 -0 -0 0 -0 0 0 0 0 0 0 0 0 0 0 0 0 0 0 1 4 4 3 4 4 3 3 4 5 4 3 2 2 2 1 1 0 0 0 0
Wind_Speed_500mb
7 4 3 4 5 8 8 15 6 7 8 1 24 6 28 9 12 8 16 50 44 71 81 78 71 63 58 55 56 58 61 59 55 50 47 45 42 41 45 46 45 43 41 39 36 34 32 30 30
4 6 5 5 8 3 12 10 30 8 17 37 31 18 14 15 26 9 48 56 48 73 83 81 75 68 61 58 55 58 62 60 57 55 52 49 46 46 48 48 45 43 40 37 35 34 34 31 30
4 12 4 7 7 13 14 14 4 11 33 31 21 45 16 10 27 17 38 58 63 79 83 82 80 72 64 59 56 58 62 60 58 57 55 53 50 50 52 49 45 41 38 37 35 33 31 31 30
8 8 4 5 17 15 13 5 10 17 39 17 34 19 39 36 23 38 54 57 68 81 83 84 84 76 68 62 57 58 61 60 59 58 56 55 54 54 53 50 44 40 38 36 34 32 31 29 27
10 7 2 6 14 13 14 13 23 12 22 30 43 14 21 55 44 46 64 66 73 83 85 86 86 80 71 64 59 58 58 59 59 58 58 57 56 56 55 50 44 41 38 35 32 30 29 28 25
6 5 4 12 17 11 12 32 23 5 23 38 24 18 25 40 41 36 62 71 73 77 89 89 86 81 74 66 61 58 56 55 58 58 59 59 58 57 56 52 47 42 39 34 31 28 27 25 23
11 8 9 9 18 15 6 22 8 10 17 21 37 13 21 37 37 40 65 77 89 89 88 89 88 82 75 69 64 59 56 54 55 58 59 60 59 58 58 54 48 44 40 34 30 27 25 24 21
3 7 5 8 12 16 7 39 33 23 38 36 42 11 38 67 52 55 72 82 91 94 91 90 90 85 80 74 68 62 57 54 53 53 56 57 58 58 57 55 50 46 41 35 30 25 24 23 21
2 4 4 8 7 16 30 24 52 49 44 37 33 62 63 96 53 69 77 85 90 94 92 92 93 90 84 78 72 64 59 56 52 51 52 56 57 57 56 54 49 45 40 36 30 26 24 23 21
5 5 8 11 9 20 53 52 66 47 65 47 60 64 65 34 71 88 88 91 98 99 99 96 95 93 89 84 78 72 65 62 58 55 54 54 55 56 54 52 49 44 39 35 31 27 26 24 22
2 8 9 25 45 44 38 40 63 41 43 37 54 79 51 14 38 56 90 96 108 105 103 103 98 97 94 90 85 80 75 69 63 57 53 52 55 57 56 54 51 46 41 37 35 31 26 24 24
7 15 20 17 43 42 27 44 41 57 40 52 54 60 61 49 48 50 64 79 91 96 103 104 103 99 96 94 91 87 83 77 71 64 58 55 58 59 57 56 52 46 41 36 35 30 27 26 27
8 8 21 45 43 55 57 40 40 73 51 50 54 57 56 46 50 65 65 67 65 87 98 102 103 99 98 97 96 92 88 83 76 70 62 55 54 54 56 55 50 44 40 38 35 31 30 29 27
24 32 39 43 47 37 28 35 38 56 43 44 43 45 45 45 52 63 72 64 71 79 98 100 100 100 100 100 97 94 90 86 80 73 65 58 52 51 54 53 49 45 42 38 33 30 31 29 27
25 12 15 14 29 20 31 21 19 41 57 43 51 55 52 39 36 53 65 84 72 77 90 99 102 103 102 97 94 92 89 86 82 75 68 61 54 52 53 52 50 45 41 37 35 36 34 28 25
9 6 10 14 26 26 12 23 17 40 55 49 43 52 58 53 43 40 52 63 68 77 89 94 98 106 103 98 93 89 84 82 82 78 72 65 58 54 54 53 50 45 42 39 40 39 37 30 24
9 13 15 16 17 16 11 28 14 46 46 45 41 52 58 59 46 32 38 52 53 54 84 101 99 103 106 100 93 83 78 79 80 78 74 68 62 58 56 54 50 42 42 45 45 41 35 30 23
15 14 13 22 17 25 24 31 18 41 42 44 49 46 53 63 57 48 40 35 50 48 66 101 102 100 102 99 90 79 74 73 78 79 76 70 66 62 60 57 50 47 47 47 45 42 36 31 24
15 11 14 27 21 13 21 24 25 32 37 32 45 51 58 64 62 56 53 36 49 53 58 91 100 98 101 100 91 86 79 78 81 78 72 71 69 66 66 65 56 56 55 54 48 42 41 37 35
14 15 16 15 16 20 29 35 32 23 23 31 44 60 60 63 63 55 55 39 41 62 61 67 94 100 98 95 89 82 79 72 66 67 72 73 72 72 73 71 65 61 61 58 50 46 50 42 42
6 11 13 23 26 18 19 27 18 25 27 56 43 56 66 54 48 48 51 35 41 62 71 78 82 89 98 97 89 82 72 72 71 70 66 71 70 74 75 76 66 62 62 62 54 52 53 51 48
10 8 20 30 12 22 8 25 51 30 33 24 35 39 38 43 36 37 41 25 42 55 78 80 81 89 96 101 96 87 81 85 75 71 69 66 65 66 71 74 71 67 66 64 61 58 59 59 56
14 24 25 20 25 10 17 8 13 12 19 21 14 22 30 41 45 48 45 37 23 59 70 90 95 94 100 108 104 92 87 81 75 75 70 70 67 64 62 65 71 74 67 70 69 67 65 63 54
22 18 15 5 5 5 9 1 13 20 14 21 29 39 40 42 57 58 49 44 19 30 52 81 92 101 103 107 111 100 90 87 86 79 76 75 73 71 68 65 64 67 74 75 74 73 66 63 59
15 12 9 11 7 10 9 12 10 25 28 27 20 34 46 44 54 67 64 64 56 9 43 58 78 88 100 104 108 107 97 91 89 85 77 76 76 77 73 72 69 68 65 72 77 76 70 68 65
9 2 6 10 6 16 18 8 6 12 25 35 33 43 54 63 65 62 70 78 64 32 27 56 58 70 82 95 104 103 103 96 92 86 84 77 76 73 71 72 71 69 68 64 74 82 72 68 64
10 5 8 10 7 8 8 9 5 24 28 42 61 65 66 70 77 57 65 78 67 63 10 49 57 58 53 70 93 106 103 100 99 93 88 83 77 77 76 73 75 75 71 69 67 81 85 73 66
7 2 5 4 8 9 10 8 6 25 33 37 41 56 64 69 76 48 44 67 65 60 50 7 53 67 60 52 56 81 106 106 101 98 95 87 81 79 77 75 77 81 79 76 71 77 86 76 63
4 6 8 8 7 7 9 10 5 18 25 31 30 54 58 59 65 62 48 53 52 46 51 46 25 34 53 63 69 65 71 87 89 91 95 88 85 82 80 77 73 82 83 90 83 86 81 74 61
8 5 6 6 6 7 7 10 8 8 14 30 39 55 58 56 55 58 54 47 56 40 40 40 40 35 12 36 61 76 80 81 83 90 92 94 91 86 80 75 75 76 93 86 96 91 79 75 59
Wind_Direction_500mb
263 240 180 160 58 65 248 250 250 260 298 92 6 190 210 259 189 212 163 167 174 178 176 175 176 178 174 172 175 179 178 179 179 177 175 171 169 165 162 160 157 155 151 147 143 138 134 133 129
227 182 155 117 109 176 254 226 239 228 262 313 317 295 233 277 246 208 157 170 182 178 178 176 177 179 176 173 174 178 180 181 181 181 179 175 173 168 166 164 160 158 157 153 148 145 142 139 136
200 169 140 126 156 209 241 217 34 309 317 324 319 333 293 242 265 221 174 170 179 180 180 178 179 180 178 175 173 174 178 180 180 181 178 175 174 171 169 167 165 163 161 158 153 151 149 147 143
153 153 83 116 234 256 240 316 36 349 326 37 337 303 309 299 276 204 174 177 177 180 182 181 180 182 181 178 175 174 177 179 179 179 177 176 175 173 172 171 170 167 166 161 159 158 156 157 154
146 123 70 268 256 257 260 272 318 310 292 305 313 280 273 305 272 205 186 182 180 179 182 182 181 183 183 180 178 177 177 178 179 179 178 178 177 175 175 174 173 172 169 166 165 166 164 165 165
114 81 72 246 251 260 297 281 306 284 296 318 312 286 280 275 243 224 200 185 179 180 182 183 183 184 184 184 182 180 179 177 179 180 181 181 180 179 179 178 177 175 173 172 172 174 173 174 177
123 96 221 267 270 299 293 338 353 328 311 313 335 300 300 308 247 226 198 189 185 184 182 184 183 186 186 187 186 184 182 179 179 181 184 184 184 183 183 182 182 179 178 178 178 181 181 183 184
181 103 210 253 286 287 330 335 312 323 305 312 331 315 310 315 280 208 192 190 187 187 186 186 185 186 188 189 189 188 186 184 182 183 185 187 187 187 187 186 187 186 187 187 186 187 188 190 188
119 28 275 279 320 277 318 328 309 312 291 297 305 307 317 314 243 202 191 190 189 190 190 189 188 188 190 190 190 191 190 189 187 186 187 188 189 190 190 191 192 194 196 196 193 195 196 194 192
126 109 245 215 290 307 308 304 304 305 300 295 305 307 331 327 212 199 194 193 192 193 194 194 192 191 191 191 192 192 192 193 192 191 189 191 192 193 193 194 195 197 198 198 198 202 202 197 197
26 198 276 308 310 312 308 307 311 299 288 307 305 304 313 264 208 202 196 198 196 196 195 195 195 195 193 194 194 194 195 196 197 197 195 193 194 195 194 197 198 199 199 201 203 207 206 201 204
310 284 285 305 313 317 304 304 298 290 301 309 300 296 293 280 224 227 208 205 201 200 200 198 198 196 196 196 198 198 197 197 200 199 199 199 198 198 198 201 204 204 205 204 207 208 208 208 211
212 256 297 302 300 299 297 289 278 282 304 315 311 303 302 270 254 232 223 215 213 210 203 203 202 200 198 199 200 201 202 200 202 203 202 203 205 204 202 206 208 208 209 209 209 206 212 216 219
271 275 288 305 311 307 287 292 304 293 305 329 325 321 303 303 258 241 227 226 223 218 211 207 207 206 204 203 204 204 205 204 204 206 206 206 207 209 209 209 210 208 208 209 208 209 220 222 222
288 309 324 307 309 295 306 293 292 308 310 329 323 320 319 311 288 230 238 225 237 233 217 214 212 209 210 209 208 208 209 208 207 208 209 210 209 210 212 212 213 211 210 208 205 209 215 209 205
356 33 333 275 294 293 296 291 266 315 321 318 318 321 316 310 315 272 236 238 234 246 230 218 215 212 212 212 211 211 212 211 210 211 212 212 214 213 214 214 214 214 214 210 206 208 205 205 207
3 285 289 297 290 288 238 292 286 304 305 306 302 314 313 314 306 294 271 233 233 242 238 225 219 216 215 213 214 213 213 212 213 214 215 216 217 216 215 214 213 211 209 205 205 204 204 205 215
277 295 278 283 289 295 284 278 275 283 292 296 300 308 307 304 308 308 308 266 227 233 237 232 219 217 215 213 213 213 214 214 216 216 217 219 219 220 219 214 209 204 200 197 201 205 209 215 215
264 247 259 290 281 307 282 287 285 281 282 286 296 305 308 299 304 311 313 281 234 231 235 227 220 218 215 211 209 211 211 212 216 218 221 222 223 223 222 218 210 204 204 204 208 213 216 226 220
285 301 294 282 287 286 292 289 283 271 267 264 291 302 303 302 302 312 312 280 232 226 226 226 220 220 217 214 210 210 210 211 215 218 221 222 225 225 224 221 214 209 210 211 213 216 220 217 220
281 259 286 298 299 272 269 282 279 274 262 281 275 288 298 294 299 314 329 311 231 220 221 219 216 221 217 210 210 210 208 212 215 219 222 220 221 225 224 223 220 216 215 219 216 216 218 219 223
315 280 295 298 312 290 93 292 278 283 277 261 270 290 343 353 341 327 325 328 249 219 217 217 214 214 216 207 211 212 209 209 214 221 219 217 218 219 224 224 223 222 221 223 221 222 225 233 241
254 316 288 268 277 306 308 231 298 315 283 271 335 5 2 356 359 360 343 346 276 225 211 213 213 212 215 209 210 215 214 217 220 221 223 220 217 219 219 224 225 226 226 226 225 226 228 236 238
309 317 288 353 76 352 269 44 314 337 329 10 3 357 344 357 3 7 3 1 358 227 212 213 214 214 213 213 212 215 218 218 219 223 225 223 221 221 222 224 225 227 230 230 227 230 232 237 243
359 12 337 350 1 234 324 330 246 351 5 0 346 356 357 3 4 10 9 0 12 279 212 206 209 213 214 216 216 216 220 221 225 225 231 228 226 224 226 226 227 227 232 233 230 230 234 237 246
308 236 172 282 279 295 313 238 262 16 348 342 348 357 4 2 4 8 12 3 12 11 210 207 196 206 212 217 221 221 220 223 225 230 233 236 235 237 235 234 233 232 233 238 231 231 235 235 242
326 31 303 274 273 277 248 261 305 325 343 350 355 352 355 355 354 355 8 9 13 23 359 216 210 197 199 212 222 226 227 225 224 231 237 241 243 243 243 244 240 237 236 235 235 233 233 235 238
132 157 289 300 286 278 271 255 259 339 351 349 346 341 349 349 347 348 344 353 8 26 31 182 219 214 209 209 215 225 228 231 232 236 233 236 245 247 247 246 247 242 239 237 233 235 235 234 235
358 312 255 260 233 275 308 277 203 13 347 340 337 335 340 345 340 340 336 341 344 17 29 50 63 225 228 226 222 223 230 233 234 234 232 243 248 249 250 250 250 249 243 238 232 235 234 233 225
177 247 260 268 264 248 262 268 100 23 348 340 338 335 337 339 338 342 335 336 334 350 359 33 48 60 67 231 231 234 233 233 237 239 239 240 245 247 250 251 251 254 247 243 231 233 231 222 218
Wind_Speed_850mb
7 4 3 4 5 8 8 15 6 7 8 1 24 6 28 9 12 8 16 50 44 71 81 78 71 63 58 55 56 58 61 59 55 50 47 45 42 41 45 46 45 43 41 39 36 34 32 30 30
4 6 5 5 8 3 12 10 30 8 17 37 31 18 14 15 26 9 48 56 48 73 83 81 75 68 61 58 55 58 62 60 57 55 52 49 46 46 48 48 45 43 40 37 35 34 34 31 30
4 12 4 7 7 13 14 14 4 11 33 31 21 45 16 10 27 17 38 58 63 79 83 82 80 72 64 59 56 58 62 60 58 57 55 53 50 50 52 49 45 41 38 37 35 33 31 31 30
8 8 4 5 17 15 13 5 10 17 39 17 34 19 39 36 23 38 54 57 68 81 83 84 84 76 68 62 57 58 61 60 59 58 56 55 54 54 53 50 44 40 38 36 34 32 31 29 27
10 7 2 6 14 13 14 13 23 12 22 30 43 14 21 55 44 46 64 66 73 83 85 86 86 80 71 64 59 58 58 59 59 58 58 57 56 56 55 50 44 41 38 35 32 30 29 28 25
6 5 4 12 17 11 12 32 23 5 23 38 24 18 25 40 41 36 62 71 73 77 89 89 86 81 74 66 61 58 56 55 58 58 59 59 58 57 56 52 47 42 39 34 31 28 27 25 23
11 8 9 9 18 15 6 22 8 10 17 21 37 13 21 37 37 40 65 77 89 89 88 89 88 82 75 69 64 59 56 54 55 58 59 60 59 58 58 54 48 44 40 34 30 27 25 24 21
3 7 5 8 12 16 7 39 33 23 38 36 42 11 38 67 52 55 72 82 91 94 91 90 90 85 80 74 68 62 57 54 53 53 56 57 58 58 57 55 50 46 41 35 30 25 24 23 21
2 4 4 8 7 16 30 24 52 49 44 37 33 62 63 96 53 69 77 85 90 94 92 92 93 90 84 78 72 64 59 56 52 51 52 56 57 57 56 54 49 45 40 36 30 26 24 23 21
5 5 8 11 9 20 53 52 66 47 65 47 60 64 65 34 71 88 88 91 98 99 99 96 95 93 89 84 78 72 65 62 58 55 54 54 55 56 54 52 49 44 39 35 31 27 26 24 22
2 8 9 25 45 44 38 40 63 41 43 37 54 79 51 14 38 56 90 96 108 105 103 103 98 97 94 90 85 80 75 69 63 57 53 52 55 57 56 54 51 46 41 37 35 31 26 24 24
7 15 20 17 43 42 27 44 41 57 40 52 54 60 61 49 48 50 64 79 91 96 103 104 103 99 96 94 91 87 83 77 71 64 58 55 58 59 57 56 52 46 41 36 35 30 27 26 27
8 8 21 45 43 55 57 40 40 73 51 50 54 57 56 46 50 65 65 67 65 87 98 102 103 99 98 97 96 92 88 83 76 70 62 55 54 54 56 55 50 44 40 38 35 31 30 29 27
24 32 39 43 47 37 28 35 38 56 43 44 43 45 45 45 52 63 72 64 71 79 98 100 100 100 100 100 97 94 90 86 80 73 65 58 52 51 54 53 49 45 42 38 33 30 31 29 27
25 12 15 14 29 20 31 21 19 41 57 43 51 55 52 39 36 53 65 84 72 77 90 99 102 103 102 97 94 92 89 86 82 75 68 61 54 52 53 52 50 45 41 37 35 36 34 28 25
9 6 10 14 26 26 12 23 17 40 55 49 43 52 58 53 43 40 52 63 68 77 89 94 98 106 103 98 93 89 84 82 82 78 72 65 58 54 54 53 50 45 42 39 40 39 37 30 24
9 13 15 16 17 16 11 28 14 46 46 45 41 52 58 59 46 32 38 52 53 54 84 101 99 103 106 100 93 83 78 79 80 78 74 68 62 58 56 54 50 42 42 45 45 41 35 30 23
15 14 13 22 17 25 24 31 18 41 42 44 49 46 53 63 57 48 40 35 50 48 66 101 102 100 102 99 90 79 74 73 78 79 76 70 66 62 60 57 50 47 47 47 45 42 36 31 24
15 11 14 27 21 13 21 24 25 32 37 32 45 51 58 64 62 56 53 36 49 53 58 91 100 98 101 100 91 86 79 78 81 78 72 71 69 66 66 65 56 56 55 54 48 42 41 37 35
14 15 16 15 16 20 29 35 32 23 23 31 44 60 60 63 63 55 55 39 41 62 61 67 94 100 98 95 89 82 79 72 66 67 72 73 72 72 73 71 65 61 61 58 50 46 50 42 42
6 11 13 23 26 18 19 27 18 25 27 56 43 56 66 54 48 48 51 35 41 62 71 78 82 89 98 97 89 82 72 72 71 70 66 71 70 74 75 76 66 62 62 62 54 52 53 51 48
10 8 20 30 12 22 8 25 51 30 33 24 35 39 38 43 36 37 41 25 42 55 78 80 81 89 96 101 96 87 81 85 75 71 69 66 65 66 71 74 71 67 66 64 61 58 59 59 56
14 24 25 20 25 10 17 8 13 12 19 21 14 22 30 41 45 48 45 37 23 59 70 90 95 94 100 108 104 92 87 81 75 75 70 70 67 64 62 65 71 74 67 70 69 67 65 63 54
22 18 15 5 5 5 9 1 13 20 14 21 29 39 40 42 57 58 49 44 19 30 52 81 92 101 103 107 111 100 90 87 86 79 76 75 73 71 68 65 64 67 74 75 74 73 66 63 59
15 12 9 11 7 10 9 12 10 25 28 27 20 34 46 44 54 67 64 64 56 9 43 58 78 88 100 104 108 107 97 91 89 85 77 76 76 77 73 72 69 68 65 72 77 76 70 68 65
9 2 6 10 6 16 18 8 6 12 25 35 33 43 54 63 65 62 70 78 64 32 27 56 58 70 82 95 104 103 103 96 92 86 84 77 76 73 71 72 71 69 68 64 74 82 72 68 64
10 5 8 10 7 8 8 9 5 24 28 42 61 65 66 70 77 57 65 78 67 63 10 49 57 58 53 70 93 106 103 100 99 93 88 83 77 77 76 73 75 75 71 69 67 81 85 73 66
7 2 5 4 8 9 10 8 6 25 33 37 41 56 64 69 76 48 44 67 65 60 50 7 53 67 60 52 56 81 106 106 101 98 95 87 81 79 77 75 77 81 79 76 71 77 86 76 63
4 6 8 8 7 7 9 10 5 18 25 31 30 54 58 59 65 62 48 53 52 46 51 46 25 34 53 63 69 65 71 87 89 91 95 88 85 82 80 77 73 82 83 90 83 86 81 74 61
8 5 6 6 6 7 7 10 8 8 14 30 39 55 58 56 55 58 54 47 56 40 40 40 40 35 12 36 61 76 80 81 83 90 92 94 91 86 80 75 75 76 93 86 96 91 79 75 59
Wind_Direction_850mb
263 240 180 160 58 65 248 250 250 260 298 92 6 190 210 259 189 212 163 167 174 178 176 175 176 178 174 172 175 179 178 179 179 177 175 171 169 165 162 160 157 155 151 147 143 138 134 133 129
227 182 155 117 109 176 254 226 239 228 262 313 317 295 233 277 246 208 157 170 182 178 178 176 177 179 176 173 174 178 180 181 181 181 179 175 173 168 166 164 160 158 157 153 148 145 142 139 136
200 169 140 126 156 209 241 217 34 309 317 324 319 333 293 242 265 221 174 170 179 180 180 178 179 180 178 175 173 174 178 180 180 181 178 175 174 171 169 167 165 163 161 158 153 151 149 147 143
153 153 83 116 234 256 240 316 36 349 326 37 337 303 309 299 276 204 174 177 177 180 182 181 180 182 181 178 175 174 177 179 179 179 177 176 175 173 172 171 170 167 166 161 159 158 156 157 154
146 123 70 268 256 257 260 272 318 310 292 305 313 280 273 305 272 205 186 182 180 179 182 182 181 183 183 180 178 177 177 178 179 179 178 178 177 175 175 174 173 172 169 166 165 166 164 165 165
114 81 72 246 251 260 297 281 306 284 296 318 312 286 280 275 243 224 200 185 179 180 182 183 183 184 184 184 182 180 179 177 179 180 181 181 180 179 179 178 177 175 173 172 172 174 173 174 177
123 96 221 267 270 299 293 338 353 328 311 313 335 300 300 308 247 226 198 189 185 184 182 184 183 186 186 187 186 184 182 179 179 181 184 184 184 183 183 182 182 179 178 178 178 181 181 183 184
181 103 210 253 286 287 330 335 312 323 305 312 331 315 310 315 280 208 192 190 187 187 186 186 185 186 188 189 189 188 186 184 182 183 185 187 187 187 187 186 187 186 187 187 186 187 188 190 188
119 28 275 279 320 277 318 328 309 312 291 297 305 307 317 314 243 202 191 190 189 190 190 189 188 188 190 190 190 191 190 189 187 186 187 188 189 190 190 191 192 194 196 196 193 195 196 194 192
126 109 245 215 290 307 308 304 304 305 300 295 305 307 331 327 212 199 194 193 192 193 194 194 192 191 191 191 192 192 192 193 192 191 189 191 192 193 193 194 195 197 198 198 198 202 202 197 197
26 198 276 308 310 312 308 307 311 299 288 307 305 304 313 264 208 202 196 198 196 196 195 195 195 195 193 194 194 194 195 196 197 197 195 193 194 195 194 197 198 199 199 201 203 207 206 201 204
310 284 285 305 313 317 304 304 298 290 301 309 300 296 293 280 224 227 208 205 201 200 200 198 198 196 196 196 198 198 197 197 200 199 199 199 198 198 198 201 204 204 205 204 207 208 208 208 211
212 256 297 302 300 299 297 289 278 282 304 315 311 303 302 270 254 232 223 215 213 210 203 203 202 200 198 199 200 201 202 200 202 203 202 203 205 204 202 206 208 208 209 209 209 206 212 216 219
271 275 288 305 311 307 287 292 304 293 305 329 325 321 303 303 258 241 227 226 223 218 211 207 207 206 204 203 204 204 205 204 204 206 206 206 207 209 209 209 210 208 208 209 208 209 220 222 222
288 309 324 307 309 295 306 293 292 308 310 329 323 320 319 311 288 230 238 225 237 233 217 214 212 209 210 209 208 208 209 208 207 208 209 210 209 210 212 212 213 211 210 208 205 209 215 209 205
356 33 333 275 294 293 296 291 266 315 321 318 318 321 316 310 315 272 236 238 234 246 230 218 215 212 212 212 211 211 212 211 210 211 212 212 214 213 214 214 214 214 214 210 206 208 205 205 207
3 285 289 297 290 288 238 292 286 304 305 306 302 314 313 314 306 294 271 233 233 242 238 225 219 216 215 213 214 213 213 212 213 214 215 216 217 216 215 214 213 211 209 205 205 204 204 205 215
277 295 278 283 289 295 284 278 275 283 292 296 300 308 307 304 308 308 308 266 227 233 237 232 219 217 215 213 213 213 214 214 216 216 217 219 219 220 219 214 209 204 200 197 201 205 209 215 215
264 247 259 290 281 307 282 287 285 281 282 286 296 305 308 299 304 311 313 281 234 231 235 227 220 218 215 211 209 211 211 212 216 218 221 222 223 223 222 218 210 204 204 204 208 213 216 226 220
285 301 294 282 287 286 292 289 283 271 267 264 291 302 303 302 302 312 312 280 232 226 226 226 220 220 217 214 210 210 210 211 215 218 221 222 225 225 224 221 214 209 210 211 213 216 220 217 220
281 259 286 298 299 272 269 282 279 274 262 281 275 288 298 294 299 314 329 311 231 220 221 219 216 221 217 210 210 210 208 212 215 219 222 220 221 225 224 223 220 216 215 219 216 216 218 219 223
315 280 295 298 312 290 93 292 278 283 277 261 270 290 343 353 341 327 325 328 249 219 217 217 214 214 216 207 211 212 209 209 214 221 219 217 218 219 224 224 223 222 221 223 221 222 225 233 241
254 316 288 268 277 306 308 231 298 315 283 271 335 5 2 356 359 360 343 346 276 225 211 213 213 212 215 209 210 215 214 217 220 221 223 220 217 219 219 224 225 226 226 226 225 226 228 236 238
309 317 288 353 76 352 269 44 314 337 329 10 3 357 344 357 3 7 3 1 358 227 212 213 214 214 213 213 212 215 218 218 219 223 225 223 221 221 222 224 225 227 230 230 227 230 232 237 243
359 12 337 350 1 234 324 330 246 351 5 0 346 356 357 3 4 10 9 0 12 279 212 206 209 213 214 216 216 216 220 221 225 225 231 228 226 224 226 226 227 227 232 233 230 230 234 237 246
308 236 172 282 279 295 313 238 262 16 348 342 348 357 4 2 4 8 12 3 12 11 210 207 196 206 212 217 221 221 220 223 225 230 233 236 235 237 235 234 233 232 233 238 231 231 235 235 242
326 31 303 274 273 277 248 261 305 325 343 350 355 352 355 355 354 355 8 9 13 23 359 216 210 197 199 212 222 226 227 225 224 231 237 241 243 243 243 244 240 237 236 235 235 233 233 235 238
132 157 289 300 286 278 271 255 259 339 351 349 346 341 349 349 347 348 344 353 8 26 31 182 219 214 209 209 215 225 228 231 232 236 233 236 245 247 247 246 247 242 239 237 233 235 235 234 235
358 312 255 260 233 275 308 277 203 13 347 340 337 335 340 345 340 340 336 341 344 17 29 50 63 225 228 226 222 223 230 233 234 234 232 243 248 249 250 250 250 249 243 238 232 235 234 233 225
177 247 260 268 264 248 262 268 100 23 348 340 338 335 337 339 338 342 335 336 334 350 359 33 48 60 67 231 231 234 233 233 237 239 239 240 245 247 250 251 251 254 247 243 231 233 231 222 218